Regional Weather Roundup
Issued by NWS

Home | Current Version | Previous Version | Graphics & Text | Print | Product List | Glossary On
Versions: 1 2 3 4 5 6 7 8 9 10 11 12 13 14 15 16 17 18 19 20 21 22 23 24 25 26 27 28 29 30 31 32 33 34 35 36 37 38 39 40 41 42 43 44 45 46 47 48 49 50
175
ASUS45 KCYS 240610
RWRWY

WYOMING REGIONAL WEATHER ROUNDUP
NATIONAL WEATHER SERVICE CHEYENNE WY
1100 PM MST THU NOV 23 2017

NOTE:  "FAIR" INDICATES FEW OR NO CLOUDS BELOW 12,000 FEET
WITH NO SIGNIFICANT WEATHER AND/OR OBSTRUCTIONS TO VISIBILITY.

WYZ001-240700-
YELLOWSTONE NATIONAL PARK

CITY           SKY/WX    TMP DP  RH WIND       PRES   REMARKS
LK YELLOWSTONE   N/A     40  35  83 W9G18     29.94F WCI  34
6HR MIN TEMP:  39; 6HR MAX TEMP:  41; 6HR PCP:  0.01;

W YELLOWSTONE  NOT AVBL

$$
WYZ002>013-054>058-071-098>099-240700-
NORTHERN WYOMING

CITY           SKY/WX    TMP DP  RH WIND       PRES   REMARKS
JACKSON        CLOUDY    48  36  63 S14G23      N/A
CODY           FAIR      57  32  38 SW24G30   29.76F
GREYBULL       FAIR      39  33  79 SE8       29.71F WCI  33
6HR MIN TEMP:  37; 6HR MAX TEMP:  49;

WORLAND        FAIR      39  33  79 S3        29.74F
6HR MIN TEMP:  33; 6HR MAX TEMP:  45;

SHERIDAN       FAIR      64  29  26 W20G33    29.59F
6HR MIN TEMP:  54; 6HR MAX TEMP:  66;

BUFFALO        FAIR      63  21  20 NW13G25   29.68R
6HR MIN TEMP:  50; 6HR MAX TEMP:  65;

GILLETTE       FAIR      58  31  35 SW22G29   29.66F
6HR MIN TEMP:  55; 6HR MAX TEMP:  60;

HULETT         FAIR      52  34  50 SW8       29.66F
NEWCASTLE      FAIR      41  32  70 NE5       29.72F

$$
WYZ014>020-022>026-101>103-240700-
CENTRAL WYOMING

CITY           SKY/WX    TMP DP  RH WIND       PRES   REMARKS
BIG PINEY      CLOUDY    44  35  70 SW9       30.06F
6HR MIN TEMP:  41; 6HR MAX TEMP:  50;

PINEDALE       CLOUDY    37  36  93 E7        30.07F WCI  32
DUBOIS         DRIZZLE   41  34  75 W23       29.93F
LANDER         FAIR      55  34  45 W10G21    29.88F
6HR MIN TEMP:  52; 6HR MAX TEMP:  61;

RIVERTON       FAIR      47  32  56 SW9       29.87F
6HR MIN TEMP:  43; 6HR MAX TEMP:  59;

CASPER         FAIR      53  34  48 SW22      29.85F
6HR MIN TEMP:  53; 6HR MAX TEMP:  57;

DOUGLAS        FAIR      56  37  49 W14       29.82F
6HR MIN TEMP:  52; 6HR MAX TEMP:  61;


$$
WYZ021-027>030-104>119-240700-
SOUTHERN WYOMING

CITY           SKY/WX    TMP DP  RH WIND       PRES   REMARKS
EVANSTON       FAIR      44  32  62 SW13      30.12F
6HR MIN TEMP:  42; 6HR MAX TEMP:  51;

KEMMERER       FAIR      41  34  75 W7        30.10F
FORT BRIDGER   FAIR      46  32  57 SW14      30.12F
ROCK SPRINGS   CLOUDY    47  35  63 W12       30.11F
6HR MIN TEMP:  47; 6HR MAX TEMP:  53;

DIXON          MOCLDY    42  32  67 CALM      30.14F
RAWLINS        LGT RAIN  47  33  58 W29G37    30.01F
6HR MIN TEMP:  47; 6HR MAX TEMP:  52; 6HR PCP: TRACE;

SARATOGA       MOCLDY    46  32  57 S9G25     30.10F
LARAMIE        FAIR      47  30  51 SW7       30.03F
6HR MIN TEMP:  46; 6HR MAX TEMP:  52;

CHEYENNE       FAIR      57  31  37 W22G36    29.92F
6HR MIN TEMP:  52; 6HR MAX TEMP:  59;

TORRINGTON     FAIR      63  36  36 W18G35    29.77F
6HR MIN TEMP:  61; 6HR MAX TEMP:  64;

PINE BLUFFS    FAIR      57  28  33 W12G18    29.88F

$$




USA.gov is the U.S. government's official web portal to all federal, state and local government web resources and services.